Home > Weather > Bühl > Past weeks

Flag for Germany Past Weather in Bühl, Baden-Württemberg, Germany — Yesterday and Last 2 Weeks

Now
82 °F

Passing clouds.


Feels Like: 82 °F
Forecast: 62 / 80 °F
Wind: 6 mph from West

Location: Karlsruhe - Baden Wurttemberg

Current Time: Jul 25, 2016 at 7:51:20 PM

Latest Report: Jul 25, 2016 at 6:50 PM


Visibility: N/A

Pressure: 30.07 "Hg

Humidity: 45%

Dew Point: 59 °F

Location of BühlLocation

Past Weather in Bühl — Graph

°F

Bühl Temperature Yesterday

Maximum temperature yesterday: 81 °F (at 5:50 PM)
Minimum temperature yesterday: 66 °F (at 3:20 AM)
Average temperature yesterday: 72 °F

High & Low Weather Summary for the Past Weeks

 TemperatureHumidityPressure
High93 °F (Jul 20, 3:50 PM)100% (Jul 11, 3:50 PM)30.33 "Hg (Jul 11, 3:50 PM)
Low50 °F (Jul 16, 4:50 AM)28% (Jul 20, 6:50 PM)29.83 "Hg (Jul 10, 6:50 PM)
Average71 °F73%30.07 "Hg
* Reported Jul 10 6:20 PM — Jul 25 6:20 PM, Bühl, Weather by CustomWeather, © 2016

Note: Actual official high and low records may vary slightly from our data, if they occured in-between our weather recording intervals... More about our weather records

Advertising

Bühl Weather History for the Previous 24 Hours

Scroll right to see more
 ConditionsComfort  
Time TempWeatherWind HumidityBarometerVisibility
6:20 PM
Mon, Jul 25
84 °FSunny.2 mph45%30.07 "Hg10 mi
5:50 PM84 °FPassing clouds.6 mph43%30.07 "HgN/A
5:20 PM84 °FPassing clouds.5 mph43%30.07 "HgN/A
4:50 PM82 °FPassing clouds.6 mph45%30.07 "HgN/A
4:20 PM82 °FPassing clouds.7 mph45%30.07 "HgN/A
3:50 PM84 °FPassing clouds.7 mph45%30.07 "HgN/A
3:20 PM82 °FPassing clouds.7 mph48%30.07 "HgN/A
2:50 PM82 °FPassing clouds.8 mph45%30.09 "HgN/A
2:20 PM82 °FPassing clouds.7 mph55%30.09 "HgN/A
1:50 PM81 °FScattered clouds.6 mph58%30.09 "HgN/A
1:20 PM79 °FScattered clouds.5 mph61%30.09 "HgN/A
12:50 PM79 °FScattered clouds.3 mph65%30.09 "HgN/A
12:20 PM79 °FScattered clouds.7 mph65%30.09 "HgN/A
11:50 AM77 °FPassing clouds.7 mph69%30.09 "HgN/A
11:20 AM77 °FPassing clouds.7 mph69%30.09 "HgN/A
10:50 AM75 °FPassing clouds.8 mph74%30.09 "HgN/A
10:20 AM73 °FPassing clouds.8 mph78%30.09 "HgN/A
9:50 AM73 °FPassing clouds.7 mph78%30.09 "HgN/A
9:20 AM73 °FPassing clouds.7 mph74%30.09 "HgN/A
8:50 AM72 °FScattered clouds.7 mph78%30.09 "HgN/A
8:20 AM72 °FSunny.8 mph83%30.09 "Hg10 mi
7:50 AM70 °FPassing clouds.6 mph88%30.09 "HgN/A
7:20 AM68 °FPassing clouds.5 mph94%30.09 "HgN/A
6:50 AM68 °FPartly cloudy.6 mph94%30.09 "HgN/A
6:20 AM68 °FPassing clouds.5 mph94%30.09 "HgN/A
5:50 AM68 °FPassing clouds.6 mph88%30.09 "HgN/A
5:20 AM68 °FPassing clouds.6 mph88%30.09 "HgN/A
4:50 AM68 °FPassing clouds.6 mph88%30.07 "HgN/A
4:20 AM68 °FClear.6 mph88%30.09 "Hg10 mi
3:50 AM68 °FPassing clouds.6 mph88%30.09 "HgN/A
2:50 AM68 °FPassing clouds.5 mph88%30.09 "HgN/A
1:20 AM68 °FClear.5 mph94%30.09 "Hg10 mi
12:50 AM70 °FPassing clouds.3 mph88%30.09 "HgN/A
12:20 AM68 °FPassing clouds.5 mph94%30.09 "HgN/A
11:50 PM
Sun, Jul 24
68 °FPassing clouds.6 mph94%30.09 "HgN/A
11:20 PM70 °FPassing clouds.6 mph88%30.09 "HgN/A
10:50 PM70 °FClear.6 mph88%30.09 "Hg10 mi
10:20 PM70 °FClear.5 mph88%30.09 "Hg10 mi
9:50 PM72 °FSunny.3 mph83%30.09 "Hg6 mi
9:20 PM73 °FSunny.5 mph78%30.07 "Hg10 mi
8:50 PM75 °FSunny.3 mph74%30.07 "Hg10 mi
8:20 PM75 °FPassing clouds.3 mph78%30.07 "HgN/A
7:50 PM77 °FPassing clouds.5 mph69%30.07 "HgN/A
7:20 PM77 °FScattered clouds.7 mph69%30.07 "HgN/A
Weather by CustomWeather, © 2016

See weather overviewHow to use our weather pages